EN

Hourly Weather Amoeiro

Today, 28 November, Saturday

Time Temperature Precipitation Wind Pressure Humidity
00:00 +9°C° 0 mm 1 mps 725 mmHg 91%
01:00 +8°C° 0 mm 1 mps 725 mmHg 91%
02:00 +8°C° 0 mm 1 mps 724 mmHg 91%
03:00 +8°C° 0 mm 1 mps 724 mmHg 91%
04:00 +8°C° 0 mm 1 mps 724 mmHg 91%
05:00 +8°C° 0 mm 1 mps 724 mmHg 92%
06:00 +8°C° 0 mm 1 mps 724 mmHg 90%
07:00 +9°C° 0 mm 1 mps 724 mmHg 88%
08:00 +10°C° 0 mm 1 mps 724 mmHg 86%
09:00 +10°C° 0 mm 2 mps 724 mmHg 80%
10:00 +13°C° 0 mm 2 mps 724 mmHg 74%
11:00 +14°C° 0 mm 3 mps 724 mmHg 67%
12:00 +14°C° 0 mm 3 mps 723 mmHg 67%
13:00 +14°C° 0 mm 3 mps 723 mmHg 68%
14:00 +14°C° 0 mm 3 mps 722 mmHg 69%
15:00 +12°C° 0 mm 3 mps 723 mmHg 75%
16:00 +11°C° 0 mm 3 mps 723 mmHg 80%
17:00 +10°C° 0 mm 2 mps 723 mmHg 86%
18:00 +10°C° 0.1 mm 2 mps 724 mmHg 87%
19:00 +9°C° 0.1 mm 2 mps 724 mmHg 87%
20:00 +9°C° 0.1 mm 2 mps 725 mmHg 88%
21:00 +9°C° 0.1 mm 2 mps 725 mmHg 88%
22:00 +10°C° 0.1 mm 2 mps 726 mmHg 88%
23:00 +10°C° 0.1 mm 2 mps 726 mmHg 88%

Tomorrow, 29 November, Sunday

Time Temperature Precipitation Wind Pressure Humidity
00:00 +10°C° 0.3 mm 2 mps 726 mmHg 89%
01:00 +9°C° 0.3 mm 2 mps 727 mmHg 90%
02:00 +9°C° 0.3 mm 2 mps 727 mmHg 91%
03:00 +9°C° 0 mm 2 mps 727 mmHg 92%
04:00 +10°C° 0 mm 1 mps 727 mmHg 92%
05:00 +9°C° 0 mm 1 mps 728 mmHg 93%
06:00 +10°C° 0 mm 1 mps 728 mmHg 92%
07:00 +10°C° 0 mm 1 mps 729 mmHg 90%
08:00 +11°C° 0 mm 1 mps 729 mmHg 89%
09:00 +12°C° 0 mm 1 mps 730 mmHg 85%
10:00 +13°C° 0 mm 1 mps 730 mmHg 80%
11:00 +14°C° 0 mm 2 mps 730 mmHg 76%
12:00 +14°C° 0.1 mm 2 mps 730 mmHg 76%
13:00 +14°C° 0.1 mm 2 mps 731 mmHg 75%
14:00 +14°C° 0.1 mm 2 mps 731 mmHg 75%
15:00 +13°C° 0 mm 1 mps 731 mmHg 79%
16:00 +12°C° 0 mm 1 mps 731 mmHg 84%
17:00 +11°C° 0 mm 1 mps 732 mmHg 88%
18:00 +10°C° 0 mm 1 mps 732 mmHg 88%
19:00 +10°C° 0 mm 1 mps 733 mmHg 88%
20:00 +10°C° 0 mm 1 mps 733 mmHg 88%
21:00 +10°C° 0 mm 1 mps 733 mmHg 88%
22:00 +10°C° 0 mm 1 mps 734 mmHg 88%
23:00 +10°C° 0 mm 1 mps 734 mmHg 88%

Day after tomorrow, 30 November, Monday

Time Temperature Precipitation Wind Pressure Humidity
00:00 +10°C° 0 mm 1 mps 734 mmHg 88%
01:00 +10°C° 0 mm 1 mps 734 mmHg 88%
02:00 +9°C° 0 mm 1 mps 734 mmHg 88%
03:00 +9°C° 0 mm 1 mps 734 mmHg 88%
04:00 +9°C° 0 mm 1 mps 735 mmHg 88%
05:00 +9°C° 0 mm 1 mps 735 mmHg 87%
06:00 +9°C° 0 mm 1 mps 735 mmHg 85%
07:00 +10°C° 0 mm 1 mps 735 mmHg 84%
08:00 +10°C° 0 mm 1 mps 736 mmHg 82%
09:00 +12°C° 0 mm 1 mps 736 mmHg 76%
10:00 +14°C° 0 mm 1 mps 736 mmHg 70%
11:00 +16°C° 0 mm 1 mps 736 mmHg 63%
12:00 +16°C° 0 mm 1 mps 736 mmHg 63%
13:00 +16°C° 0 mm 1 mps 736 mmHg 63%
14:00 +16°C° 0 mm 1 mps 736 mmHg 63%
15:00 +14°C° 0 mm 1 mps 736 mmHg 70%
16:00 +13°C° 0 mm 1 mps 736 mmHg 77%
17:00 +11°C° 0 mm 1 mps 736 mmHg 84%
18:00 +10°C° 0 mm 1 mps 737 mmHg 85%
19:00 +10°C° 0 mm 1 mps 737 mmHg 86%
20:00 +10°C° 0 mm 1 mps 737 mmHg 87%
21:00 +9°C° 0 mm 1 mps 737 mmHg 87%
22:00 +9°C° 0 mm 1 mps 737 mmHg 88%
23:00 +9°C° 0 mm 1 mps 737 mmHg 88%

1 December, Tuesday

Time Temperature Precipitation Wind Pressure Humidity
00:00 +9°C° 0 mm 1 mps 737 mmHg 88%
01:00 +8°C° 0 mm 1 mps 737 mmHg 88%
02:00 +8°C° 0 mm 1 mps 737 mmHg 88%
03:00 +8°C° 0 mm 1 mps 737 mmHg 87%
04:00 +8°C° 0 mm 1 mps 737 mmHg 86%
05:00 +7°C° 0 mm 1 mps 737 mmHg 86%
06:00 +8°C° 0 mm 1 mps 737 mmHg 83%
07:00 +8°C° 0 mm 1 mps 738 mmHg 81%
08:00 +9°C° 0 mm 1 mps 738 mmHg 79%
09:00 +11°C° 0 mm 1 mps 738 mmHg 72%
10:00 +13°C° 0 mm 1 mps 738 mmHg 65%
11:00 +15°C° 0 mm 1 mps 738 mmHg 58%
12:00 +15°C° 0 mm 1 mps 738 mmHg 60%
13:00 +15°C° 0 mm 1 mps 737 mmHg 61%
14:00 +15°C° 0 mm 1 mps 737 mmHg 62%
15:00 +13°C° 0 mm 1 mps 737 mmHg 68%
16:00 +11°C° 0 mm 1 mps 737 mmHg 74%
17:00 +10°C° 0 mm 1 mps 737 mmHg 80%
18:00 +9°C° 0 mm 1 mps 737 mmHg 81%
19:00 +9°C° 0 mm 1 mps 737 mmHg 82%
20:00 +8°C° 0 mm 1 mps 737 mmHg 83%
21:00 +8°C° 0 mm 1 mps 737 mmHg 84%
22:00 +8°C° 0 mm 1 mps 737 mmHg 86%
23:00 +8°C° 0 mm 1 mps 737 mmHg 87%

2 December, Wednesday

Time Temperature Precipitation Wind Pressure Humidity
00:00 +7°C° 0 mm 1 mps 737 mmHg 88%
01:00 +7°C° 0 mm 1 mps 737 mmHg 89%
02:00 +7°C° 0 mm 1 mps 736 mmHg 90%
03:00 +7°C° 0 mm 1 mps 736 mmHg 90%
04:00 +7°C° 0 mm 1 mps 736 mmHg 90%
05:00 +7°C° 0 mm 1 mps 736 mmHg 91%
06:00 +7°C° 0 mm 1 mps 736 mmHg 89%
07:00 +8°C° 0 mm 1 mps 736 mmHg 86%
08:00 +8°C° 0 mm 1 mps 736 mmHg 84%
09:00 +9°C° 0 mm 2 mps 736 mmHg 80%
10:00 +10°C° 0 mm 2 mps 736 mmHg 75%
11:00 +13°C° 0 mm 2 mps 735 mmHg 71%
12:00 +13°C° 0 mm 2 mps 735 mmHg 70%
13:00 +13°C° 0 mm 2 mps 735 mmHg 70%
14:00 +12°C° 0 mm 3 mps 734 mmHg 70%
15:00 +12°C° 0 mm 2 mps 734 mmHg 76%
16:00 +9°C° 0 mm 2 mps 734 mmHg 81%
17:00 +8°C° 0 mm 2 mps 734 mmHg 87%
18:00 +8°C° 0 mm 1 mps 734 mmHg 89%
19:00 +8°C° 0 mm 1 mps 734 mmHg 90%
20:00 +7°C° 0 mm 1 mps 734 mmHg 92%
21:00 +7°C° 0 mm 1 mps 734 mmHg 93%
22:00 +6°C° 0 mm 1 mps 734 mmHg 93%
23:00 +6°C° 0 mm 1 mps 734 mmHg 94%

3 December, Thursday

Time Temperature Precipitation Wind Pressure Humidity
00:00 +6°C° 0 mm 1 mps 734 mmHg 94%
01:00 +6°C° 0 mm 1 mps 733 mmHg 95%
02:00 +5°C° 0 mm 1 mps 733 mmHg 95%
03:00 +5°C° 0 mm 1 mps 733 mmHg 95%
04:00 +4°C° 0 mm 0 mps 733 mmHg 95%
05:00 +4°C° 0 mm 0 mps 732 mmHg 95%
06:00 +4°C° 0 mm 0 mps 732 mmHg 93%
07:00 +5°C° 0 mm 0 mps 732 mmHg 91%
08:00 +6°C° 0 mm 0 mps 732 mmHg 88%
09:00 +7°C° 0 mm 0 mps 732 mmHg 82%
10:00 +9°C° 0 mm 0 mps 732 mmHg 75%
11:00 +11°C° 0 mm 0 mps 732 mmHg 68%
12:00 +12°C° 0 mm 1 mps 731 mmHg 69%
13:00 +12°C° 0 mm 1 mps 731 mmHg 70%
14:00 +12°C° 0 mm 1 mps 730 mmHg 71%
15:00 +11°C° 0 mm 1 mps 730 mmHg 78%
16:00 +10°C° 0 mm 1 mps 730 mmHg 85%
17:00 +8°C° 0 mm 1 mps 730 mmHg 92%
18:00 +8°C° 0 mm 1 mps 730 mmHg 91%
19:00 +8°C° 0 mm 2 mps 730 mmHg 91%
20:00 +8°C° 0 mm 2 mps 730 mmHg 90%
21:00 +8°C° 0.1 mm 2 mps 730 mmHg 92%
22:00 +8°C° 0.1 mm 2 mps 730 mmHg 93%
23:00 +8°C° 0.1 mm 2 mps 729 mmHg 94%
Show more

We Need Your Consent

Meteoprog and our Service Providers may store and access personal data such as cookies, device identifiers or other similar technologies on your device and process such data to personalise content and ads, as well as provide social media features and to analyse the traffic.

  • Store and/or access information on your device

    Cookies, device identifiers or other information can be stored or accessed on your device for the purposes indicated above.

  • Personalised ads and content, ad and content measurement, audience insights, and products development

    Ads and content can be personalised based on a profile. More data can be added to better personalise ads and content. Ad and content performance can be measured. Insights about the audience who saw the ads and content can be derived. Such data can be used to develop or improve user’s experience, systems and software.

By clicking ‘I Agree’ you will allow the use of indicated cookies, device identifiers, web beacons or other similar technologies. Your settings can be changed in the browser on your device.

For certain purposes, legitimate interests may be relied on, rather than consent. You can read more about this in our Privacy and Cookie Policy.